User: anonymous   Login
Location: Newark
(5.8900°S, 42.6378°W)
Time: 07:54:19
(UTC+00:00)
Language:

DIWATA 2B (PO-101) - Orbit

View from above orbital plane
View from above orbital plane
View from above satellite
View from above satellite

Ground track
Ground track

The orbit data is extracted from the following two-line orbital elements,

1 43678U 18084H   19296.06089207 -.00000321  00000-0 -26265-4 0  9991
2 43678  97.8633  49.8502 0008639 242.9620 117.0713 14.91575299 53487
Epoch (UTC): 23 October 2019 01:27:41
Eccentricity: 0.0008639
inclination: 97.8633°
perigee height: 587 km
apogee height: 599 km
right ascension of ascending node: 49.8502°
argument of perigee: 242.9620°
revolutions per day: 14.91575299
mean anomaly at epoch: 117.0713°
orbit number at epoch: 5348

The dashed part of the orbit path shows where the satellite is in the earth's shadow,  

DLR